TimeEST,TemperatureF,Dew PointF,Humidity,Sea Level PressureIn,VisibilityMPH,Wind Direction,Wind SpeedMPH,Gust SpeedMPH,PrecipitationIn,Events,Conditions,WindDirDegrees,DateUTC
12:15 AM,30.7,26.8,85,29.98,7.0,Calm,Calm,-,N/A,,Overcast,0,2013-12-02 05:15:00
12:35 AM,30.7,26.6,85,29.97,7.0,Calm,Calm,-,N/A,,Overcast,0,2013-12-02 05:35:00
12:55 AM,30.2,26.8,87,29.97,7.0,Calm,Calm,-,N/A,,Overcast,0,2013-12-02 05:55:00
1:15 AM,30.2,26.8,87,29.96,7.0,Calm,Calm,-,N/A,Snow,Light Snow,0,2013-12-02 06:15:00
1:35 AM,30.6,27.1,87,29.96,7.0,Calm,Calm,-,N/A,,Overcast,0,2013-12-02 06:35:00
1:55 AM,30.4,27.3,88,29.96,7.0,Calm,Calm,-,N/A,,Overcast,0,2013-12-02 06:55:00
2:15 AM,30.6,27.3,88,29.96,7.0,Calm,Calm,-,N/A,,Overcast,0,2013-12-02 07:15:00
2:35 AM,30.6,27.9,90,29.96,7.0,Calm,Calm,-,N/A,,Overcast,0,2013-12-02 07:35:00
2:55 AM,30.6,27.9,90,29.96,7.0,Calm,Calm,-,N/A,,Overcast,0,2013-12-02 07:55:00
3:15 AM,30.7,28.0,90,29.95,7.0,Calm,Calm,-,N/A,,Overcast,0,2013-12-02 08:15:00
3:35 AM,30.6,28.4,92,29.95,7.0,Calm,Calm,-,N/A,,Overcast,0,2013-12-02 08:35:00
3:55 AM,30.0,27.3,90,29.94,7.0,Calm,Calm,-,N/A,,Mostly Cloudy,0,2013-12-02 08:55:00
4:15 AM,29.3,27.1,92,29.93,7.0,Calm,Calm,-,N/A,,Scattered Clouds,0,2013-12-02 09:15:00
4:35 AM,28.6,27.1,94,29.93,5.0,Calm,Calm,-,N/A,,Scattered Clouds,0,2013-12-02 09:35:00
4:55 AM,28.9,27.5,94,29.93,5.0,Calm,Calm,-,N/A,,Mostly Cloudy,0,2013-12-02 09:55:00
5:15 AM,29.7,27.5,92,29.93,7.0,Calm,Calm,-,N/A,,Overcast,0,2013-12-02 10:15:00
5:35 AM,29.7,27.5,92,29.93,7.0,Calm,Calm,-,N/A,,Overcast,0,2013-12-02 10:35:00
5:53 AM,28.4,26.6,93,29.92,5.0,Calm,Calm,-,N/A,,Overcast,0,2013-12-02 10:53:00
6:53 AM,30.2,28.4,93,29.92,6.0,Calm,Calm,-,N/A,,Overcast,0,2013-12-02 11:53:00
7:53 AM,30.2,28.4,93,29.93,6.0,Calm,Calm,-,N/A,,Overcast,0,2013-12-02 12:53:00
8:53 AM,30.2,28.4,93,29.93,6.0,Calm,Calm,-,N/A,,Overcast,0,2013-12-02 13:53:00
9:53 AM,30.2,28.4,93,29.93,7.0,Calm,Calm,-,N/A,,Overcast,0,2013-12-02 14:53:00
10:53 AM,32.0,28.4,87,29.93,5.0,Calm,Calm,-,N/A,,Overcast,0,2013-12-02 15:53:00
11:53 AM,33.8,30.2,87,29.90,5.0,Calm,Calm,-,N/A,,Overcast,0,2013-12-02 16:53:00
12:53 PM,35.6,30.2,81,29.87,5.0,Calm,Calm,-,N/A,,Mostly Cloudy,0,2013-12-02 17:53:00
1:53 PM,39.2,32.0,75,29.85,6.0,Calm,Calm,-,N/A,,Clear,0,2013-12-02 18:53:00
2:53 PM,41.0,32.0,70,29.84,6.0,Calm,Calm,-,N/A,,Haze,0,2013-12-02 19:53:00
3:53 PM,37.4,32.0,81,29.86,7.0,Calm,Calm,-,N/A,,Mostly Cloudy,0,2013-12-02 20:53:00
4:53 PM,37.4,32.0,81,29.87,6.0,Calm,Calm,-,N/A,,Haze,0,2013-12-02 21:53:00
5:53 PM,35.6,32.0,87,29.87,7.0,Calm,Calm,-,N/A,,Overcast,0,2013-12-02 22:53:00
6:53 PM,35.6,32.0,87,29.87,8.0,Calm,Calm,-,N/A,,Overcast,0,2013-12-02 23:53:00
7:53 PM,33.8,30.2,87,29.86,8.0,Calm,Calm,-,N/A,,Mostly Cloudy,0,2013-12-03 00:53:00
8:53 PM,33.8,30.2,87,29.86,7.0,Calm,Calm,-,N/A,,Scattered Clouds,0,2013-12-03 01:53:00
9:55 PM,33.4,30.2,88,29.86,7.0,North,3.5,-,N/A,,Mostly Cloudy,10,2013-12-03 02:55:00
10:15 PM,33.1,30.0,89,29.86,7.0,Calm,Calm,-,N/A,,Scattered Clouds,0,2013-12-03 03:15:00
10:35 PM,32.9,30.2,90,29.86,7.0,Calm,Calm,-,N/A,,Mostly Cloudy,0,2013-12-03 03:35:00
10:55 PM,33.1,30.4,90,29.86,5.0,Calm,Calm,-,N/A,,Overcast,0,2013-12-03 03:55:00
11:15 PM,32.5,30.9,94,29.86,5.0,Calm,Calm,-,N/A,,Overcast,0,2013-12-03 04:15:00
11:35 PM,32.5,31.1,94,29.86,5.0,Calm,Calm,-,N/A,,Overcast,0,2013-12-03 04:35:00
11:55 PM,33.3,31.5,93,29.86,5.0,NNW,3.5,-,N/A,,Overcast,340,2013-12-03 04:55:00